Location: Winnipeg
(49.8830°N, 97.1670°W)
Time: 21:16:57
(UTC-06:00)

Tiangong - Visible Passes

Search period start: 26 February 2024 00:00
Search period end: 07 March 2024 00:00
Orbit: 375 x 386 km, 41.5° (Epoch: 26 February)

Date Brightness Start Highest point End Pass type
(mag) Time Alt. Az. Time Alt. Az. Time Alt. Az.
01 Mar 0.1 19:31:25 10° SSW 19:33:00 13° SSE 19:33:32 13° SSE visible
02 Mar 0.0 20:05:43 10° SW 20:07:17 17° S 20:07:17 17° S visible
03 Mar 0.1 19:04:41 10° SSW 19:06:39 16° S 19:08:37 10° SE visible
03 Mar 0.8 20:40:38 10° SW 20:40:56 11° SW 20:40:56 11° SW visible
04 Mar -0.1 19:39:12 10° SW 19:41:23 18° S 19:42:22 15° SSE visible
05 Mar 0.3 20:14:13 10° SW 20:15:50 14° SSW 20:15:50 14° SSW visible
06 Mar 0.1 19:12:29 10° SW 19:14:35 17° S 19:16:40 10° SE visible
